Regional Weather Roundup
Issued by NWS

Home | Current Version | Previous Version | Text Only | Print | Product List | Glossary On
Versions: 1 2 3 4 5 6 7 8 9 10 11 12 13 14 15 16 17 18 19 20 21 22 23 24 25 26 27 28 29 30 31 32 33 34 35 36 37 38 39 40 41 42 43 44 45 46 47 48 49 50
000
ASCA42 TJSJ 250211
RWRPR
PUERTO RICO/U.S. VIRGIN ISLANDS HOURLY WEATHER ROUNDUP
NATIONAL WEATHER SERVICE SAN JUAN PR
1000 PM AST WED DEC 24 2014

PRZ001-004-250300-
PUERTO RICO

CITY           SKY/WX    TMP DP  RH WIND       PRES   REMARKS
SAN JUAN LMM   PTCLDY    81  72  74 NE15      30.08R
PONCE          CLEAR     75  66  73 NE6       30.01S
CEIBA          PTCLDY    79  70  73 NE9       30.10R
$$

PRZ006-007-250300-
U.S. VIRGIN ISLANDS

CITY           SKY/WX    TMP DP  RH WIND       PRES   REMARKS
$$

HOURLY WEATHER ROUNDUP FOR THE NEWS MEDIA

CITY           SKY/WX    TMP DP  RH WIND       PRES   REMARKS
MIAMI          CLOUDY    77  74  90 SE13      29.98R
ORLANDO        HVY RAIN  72  69  90 W15G26    29.90R FOG
NEW YORK       FOG       53  52  96 S15       29.60F VSB 1/4
NEWARK         LGT RAIN  53  53 100 E5        29.57F VSB 1/4
CHICAGO        DRIZZLE   36  32  85 W14       29.54R WCI  27
HARTFORD       LGT RAIN  61  61 100 S21G28    29.68F
BOSTON         LGT RAIN  45  45 100 N5        29.65F VSB 1
DALLAS         CLEAR     46  31  55 SW3       30.06R
PHILADELPHIA   CLOUDY    61  59  93 S10       29.60F


USA.gov is the U.S. government's official web portal to all federal, state and local government web resources and services.